Lid_Strength_Index
14 14 14 15 14 14 14 14 14 10 10 9 9 9 9 8 8 7 6 6 6 5 4 4 4 4 3
15 15 15 15 15 15 14 13 15 12 11 10 10 9 9 9 8 7 6 6 6 6 5 5 5 4 4
15 15 15 15 15 14 14 15 14 12 12 11 10 10 9 9 8 8 7 6 6 6 6 5 5 5 4
15 15 15 14 14 15 15 15 16 13 13 13 12 11 11 10 9 8 7 7 6 6 6 6 6 6 5
15 15 16 16 16 16 16 15 16 15 16 15 15 15 14 13 11 8 8 7 7 7 6 6 6 6 6
15 15 16 16 16 16 17 16 17 15 15 16 15 15 15 14 10 9 8 7 7 7 7 6 6 7 6
16 15 15 15 16 16 16 17 17 15 15 19 16 16 15 13 10 9 8 8 7 7 7 7 7 7 6
14 15 15 15 14 14 16 16 16 15 14 18 17 17 15 14 10 10 9 9 7 7 7 7 7 7 6
14 13 13 13 13 14 16 17 18 17 15 16 17 18 18 16 13 10 10 9 8 8 8 7 7 8 8
14 14 14 13 13 15 15 17 18 18 15 16 17 17 18 17 15 13 13 10 9 8 8 8 7 11 10
16 17 16 16 16 15 15 16 17 18 15 16 18 17 16 16 16 16 15 13 10 11 9 8 8 8 10
17 17 18 17 16 16 16 16 16 16 15 15 16 17 17 17 16 15 14 14 11 11 12 10 9 8 6
17 17 17 16 16 16 16 16 15 15 14 15 15 15 14 15 15 15 13 16 11 11 12 12 12 11 10
17 17 16 17 17 16 17 17 17 17 15 15 15 14 15 16 16 15 13 15 11 14 12 12 11 10 10
17 18 17 17 17 17 17 18 20 20 19 17 16 16 17 18 22 15 13 13 13 14 11 12 11 10 10
18 17 18 18 18 18 18 19 20 21 22 21 20 21 20 18 14 14 13 15 16 14 12 12 13 10 9
18 18 19 19 18 19 19 20 22 22 23 24 22 18 19 24 18 12 15 17 17 13 13 12 11 10 9